This demonstration page uses our WeatherBlox Daily Observations layout. Learn more.

Left ArrowRight Arrow

39.01783, -85.05884

Hourly Observations for August 19, 2016

Temp ( °F °C ) Dew Point ( °F °C ) Humidity (%) Winds ( mph kmh ) Pressure ( in mb ) Visibility ( mi km ) Precip ( " mm )
12:52 am 00:52 Cloudy with Mist and Fog 73 22.8 72 22.2 96 96 S 5 7 30.02 1017 5 8 0.00 0.00
1:52 am 01:52 Mostly Cloudy with Mist and Fog 73 22.8 72 22.2 96 96 SSW 7 11 30.01 1016 5 8 0.00 0.00
2:05 am 02:05 Partly Cloudy with Mist and Fog 73 23 72 22 94 94 SSW 6 9 30.00 1016 4 6 0.00 0.00
2:29 am 02:29 Cloudy with Mist and Fog 73 23 73 23 100 100 SW 5 7 30.03 1017 4 6 0.00 0.00
2:52 am 02:52 Cloudy with Mist and Fog 73 22.8 73 22.8 100 100 SW 5 7 30.01 1016 4 6 0.00 0.00
2:54 am 02:54 Cloudy with Mist and Fog 73 23 73 23 100 100 WSW 5 7 30.00 1016 1 1 0.00 0.00
3:52 am 03:52 Cloudy with Mist and Fog 73 22.8 73 22.8 100 100 SW 6 9 30.01 1016 2 2 0.00 0.00
4:52 am 04:52 Cloudy with Mist and Fog 73 22.8 73 22.8 100 100 SW 3 6 30.00 1016 2 2 0.00 0.00
5:52 am 05:52 Cloudy with Mist and Fog 73 22.8 72 22.2 96 96 Calm 30.00 1016 2 2 0.00 0.00
6:52 am 06:52 Cloudy with Mist and Fog 73 22.8 72 22.2 96 96 SW 3 6 30.00 1016 2 2 0.00 0.00
7:35 am 07:35 Cloudy with Mist and Fog 73 23 72 22 94 94 W 5 7 30.00 1016 0 0 0.00 0.00
7:52 am 07:52 Cloudy with Mist and Fog 73 22.8 72 22.2 96 96 W 3 6 30.00 1016 0 0 0.00 0.00
8:40 am 08:40 Cloudy with Mist and Fog 73 23 72 22 94 94 SW 5 7 30.00 1016 1 2 0.00 0.00
9:00 am 09:00 Cloudy with Mist and Fog 73 23 72 22 94 94 SW 5 7 30.00 1016 3 4 0.00 0.00
9:40 am 09:40 Cloudy with Mist and Fog 73 23 72 22 94 94 SW 5 7 29.97 1015 3 4 0.00 0.00
9:52 am 09:52 Cloudy with Mist and Fog 74 23.3 72 22.2 94 94 SW 5 7 29.98 1015 3 4 0.00 0.00
10:29 am 10:29 Mostly Cloudy with Mist and Fog 75 24 72 22 89 89 SSW 6 9 29.97 1015 6 10 0.00 0.00
10:52 am 10:52 Mostly Cloudy 78 25.6 72 22.2 82 82 VRB 5 7 29.98 1015 7 11 0.00 0.00
11:12 am 11:12 Mostly Cloudy 77 25 72 22 83 83 SW 5 7 30.00 1016 7 11 0.00 0.00
11:52 am 11:52 Mostly Cloudy 80 26.7 71 21.7 74 74 VRB 3 6 29.99 1016 8 13 0.00 0.00
12:52 pm 12:52 Cloudy with Haze 79 26.1 71 21.7 77 77 SW 6 9 29.99 1016 6 10 0.00 0.00
1:52 pm 13:52 Mostly Cloudy 82 27.8 71 21.7 69 69 Calm 29.97 1015 8 13 0.00 0.00
2:52 pm 14:52 Mostly Cloudy 83 28.3 70 21.1 65 65 WSW 8 13 29.95 1014 8 13 0.00 0.00
3:52 pm 15:52 Partly Cloudy 84 28.9 71 21.7 65 65 S 8 13 29.92 1013 7 11 0.00 0.00
4:52 pm 16:52 Partly Cloudy 85 29.4 70 21.1 61 61 VRB 5 7 29.90 1013 7 11 0.00 0.00
5:52 pm 17:52 Partly Cloudy 85 29.4 70 21.1 61 61 W 6 9 29.90 1013 7 11 0.00 0.00
6:52 pm 18:52 Partly Cloudy 84 28.9 68 20 59 59 SW 5 7 29.90 1012 7 11 0.00 0.00
7:52 pm 19:52 Hazy 80 26.7 70 21.1 71 71 SSW 5 7 29.89 1012 6 10 0.00 0.00
8:52 pm 20:52 Partly Cloudy 76 24.4 71 21.7 85 85 SSW 5 7 29.88 1012 7 11 0.00 0.00
9:52 pm 21:52 Clear 76 24.4 71 21.7 85 85 SSW 6 9 29.88 1012 7 11 0.00 0.00
10:52 pm 22:52 Clear with Mist and Fog 75 23.9 71 21.7 88 88 SSW 7 11 29.90 1012 6 10 0.00 0.00
11:52 pm 23:52 Clear with Mist and Fog 73 22.8 71 21.7 94 94 SSW 5 7 29.90 1013 6 10 0.00 0.00

Powered by AerisWeather